Location: Fort Wayne
(41.1310°N, 85.1290°W)
Time: 09:47:33
(UTC-04:00)

Iridium 37 - Visible Passes

Search period start: 20 April 2014 00:00
Search period end: 30 April 2014 00:00
Orbit: 776 x 779 km, 86.4° (Epoch: 19 April)

Date Brightness Start Highest point End Pass type
(mag) Time Alt. Az. Time Alt. Az. Time Alt. Az.
20 Apr 8.4 03:17:28 10° ENE 03:18:05 10° ENE 03:18:43 10° ENE visible
20 Apr 5.4 04:54:19 10° N 04:59:34 89° W 05:03:20 19° S visible
21 Apr 6.3 04:20:56 10° N 04:26:00 49° E 04:29:25 20° SSE visible
21 Apr 7.0 06:02:45 10° NW 06:06:16 19° W 06:09:47 10° WSW visible
22 Apr 7.3 03:47:53 10° NNE 03:52:18 27° E 03:55:32 15° SE visible
22 Apr 6.2 05:28:23 10° NNW 05:33:01 33° W 05:35:59 19° SW visible
23 Apr 8.1 03:15:28 10° NE 03:18:28 15° ENE 03:21:26 10° ESE visible
23 Apr 5.5 04:54:30 10° N 04:59:38 62° W 05:02:09 30° SSW visible
24 Apr 5.6 04:20:55 10° N 04:26:09 72° E 04:28:22 35° SSE visible
24 Apr 7.4 06:03:55 10° NW 06:06:09 13° WNW 06:08:23 10° WSW visible
25 Apr 6.7 03:47:39 10° NNE 03:52:31 39° E 03:54:36 27° SE visible
25 Apr 6.7 05:28:54 10° NNW 05:32:58 24° W 05:35:03 18° WSW visible
26 Apr 7.6 03:14:47 10° NNE 03:18:46 22° ENE 03:20:53 17° ESE visible
26 Apr 5.9 04:54:46 10° NNW 04:59:40 42° W 05:01:19 33° SW visible
27 Apr 8.1 02:42:59 10° NE 02:44:52 12° ENE 02:46:45 10° E visible
27 Apr 5.4 04:21:01 10° N 04:26:14 79° W 04:27:37 50° SSW visible
28 Apr 6.0 03:47:33 10° N 03:52:41 56° E 03:53:56 45° SE visible
28 Apr 7.1 05:29:42 10° NW 05:32:52 17° WNW 05:34:23 15° W visible
29 Apr 7.0 03:14:25 10° NNE 03:19:01 31° E 03:20:16 28° ESE visible
29 Apr 6.4 04:55:10 10° NNW 04:59:38 30° W 05:00:43 27° WSW visible
